1484611200.44,11230,5.38,72988.0,-16.63,-44.53,-44.61,0,*62
1484611201.65,11231,5.38,72986.0,-16.63,-44.61,-44.53,0,*63
1484611202.88,11232,5.38,72988.8,-16.65,-44.53,-44.61,0,*66
1484611204.12,11233,5.38,72988.8,-16.65,-44.61,-44.53,0,*67
1484611205.35,11234,5.38,72986.5,-16.65,-44.61,-44.61,0,*61
1484611206.58,11235,5.38,72988.5,-16.65,-44.53,-44.53,0,*60
1484611207.82,11236,5.44,72990.3,-16.65,-44.61,-44.61,0,*63
1484611209.05,11237,5.44,72988.3,-16.65,-44.61,-44.53,0,*63
1484611210.31,11238,5.38,72986.5,-16.65,-44.33,-44.53,0,*6B
1484611211.52,11239,5.44,72990.3,-16.63,-44.53,-44.61,0,*6B
1484611212.73,11240,5.38,72986.0,-16.63,-44.61,-44.53,0,*65
1484611213.96,11241,5.38,72988.3,-16.65,-44.61,-44.53,0,*62
1484611215.2,11242,5.38,72986.3,-16.65,-44.61,-44.53,0,*61
1484611216.43,11243,5.38,72988.3,-16.65,-44.61,-44.61,0,*61
1484611217.69,11244,5.38,72986.8,-16.65,-44.79,-44.67,0,*69
1484611218.94,11245,5.38,72984.8,-16.65,-44.79,-44.79,0,*67
1484611220.17,11246,5.38,72988.0,-16.63,-44.79,-44.67,0,*6D
1484611221.45,11247,5.38,72988.3,-16.65,-44.67,-44.67,0,*65
1484611222.67,11248,5.38,72986.8,-16.63,-44.61,-44.61,0,*6C
1484611223.9,11249,5.38,72988.0,-16.65,-44.41,-44.53,0,*68
1484611225.13,11250,5.44,72988.3,-16.65,-44.61,-44.61,0,*63
1484611226.39,11251,5.38,72988.5,-16.65,-44.67,-44.53,0,*65
1484611227.67,11252,5.38,72990.5,-16.65,-44.67,-44.67,0,*61
1484611228.9,11253,5.38,72986.8,-16.65,-44.61,-44.53,0,*61
1484611230.15,11254,5.38,72988.0,-16.63,-44.67,-44.67,0,*61
1484611231.41,11255,5.44,72990.8,-16.65,-44.67,-44.53,0,*61
1484611232.67,11256,5.38,72986.8,-16.65,-44.67,-44.53,0,*62
1484611233.89,11257,5.38,72988.5,-16.63,-44.79,-44.79,0,*62
1484611235.17,11258,5.38,72986.8,-16.65,-44.67,-44.67,0,*6B
1484611236.41,11259,5.38,72984.5,-16.65,-44.87,-44.79,0,*6B
1484611237.69,11260,5.38,72986.5,-16.65,-44.67,-44.67,0,*60
1484611238.95,11261,5.38,72990.3,-16.65,-44.67,-44.79,0,*6E
1484611240.19,11262,5.38,72990.0,-16.65,-44.61,-44.61,0,*62
1484611241.42,11263,5.38,72988.5,-16.65,-44.61,-44.53,0,*62
1484611242.65,11264,5.44,72990.3,-16.65,-44.61,-44.53,0,*65
1484611243.88,11265,5.38,72984.8,-16.65,-44.53,-44.53,0,*65
1484611245.1,11266,5.38,72988.0,-16.63,-44.53,-44.61,0,*61
1484611246.33,11267,5.38,72988.0,-16.65,-44.53,-44.61,0,*66
1484611247.57,11268,5.38,72986.5,-16.65,-44.61,-44.61,0,*68
1484611248.81,11269,5.38,72986.8,-16.65,-44.79,-44.61,0,*60
1484611250.09,11270,5.38,72988.5,-16.65,-44.67,-44.67,0,*61
1484611251.35,11271,5.38,72988.3,-16.65,-44.79,-44.67,0,*6F
1484611252.59,11272,5.44,72990.8,-16.65,-44.53,-44.61,0,*62
1484611253.86,11273,5.38,72988.3,-16.65,-44.67,-44.67,0,*62
1484611255.11,11274,5.38,72988.3,-16.65,-44.79,-44.79,0,*65
1484611256.39,11275,5.38,72990.0,-16.65,-44.67,-44.67,0,*64
1484611257.64,11276,5.38,72986.0,-16.65,-44.61,-44.67,0,*61
1484611258.89,11277,5.38,72984.5,-16.65,-44.79,-44.87,0,*67
1484611260.13,11278,5.44,72988.3,-16.65,-44.79,-44.79,0,*69
1484611261.41,11279,5.38,72988.0,-16.65,-44.67,-44.67,0,*68
1484611262.67,11280,5.38,72988.0,-16.67,-44.67,-44.67,0,*6C
1484611263.89,11281,5.38,72986.5,-16.67,-44.61,-44.61,0,*6D
1484611265.1,11282,5.38,72986.8,-16.63,-44.53,-44.53,0,*6A
1484611266.33,11283,5.44,72988.5,-16.65,-44.53,-44.53,0,*6D
1484611267.56,11284,5.38,72984.8,-16.65,-44.53,-44.53,0,*6A
1484611268.8,11285,5.38,72990.5,-16.65,-44.61,-44.61,0,*6B
1484611270.03,11286,5.44,72988.5,-16.65,-44.53,-44.53,0,*68
1484611271.27,11287,5.38,72988.3,-16.65,-44.61,-44.61,0,*69
1484611272.5,11288,5.44,72990.8,-16.65,-44.53,-44.61,0,*67
1484611273.74,11289,5.44,72988.5,-16.65,-44.61,-44.61,0,*67
1484611274.97,11290,5.38,72990.5,-16.65,-44.53,-44.53,0,*6F
1484611276.22,11291,5.38,72988.8,-16.65,-44.61,-44.67,0,*68
1484611277.47,11292,5.38,72984.8,-16.65,-44.79,-44.79,0,*6D
1484611278.69,11293,5.38,72984.3,-16.63,-44.79,-44.87,0,*6B
1484611279.95,11294,5.38,72988.8,-16.65,-44.67,-44.79,0,*64
1484611281.19,11295,5.38,72986.8,-16.63,-44.67,-44.61,0,*6A
1484611282.44,11296,5.38,72984.8,-16.65,-44.61,-44.67,0,*6F
1484611283.68,11297,5.38,72986.8,-16.65,-44.53,-44.61,0,*69
1484611284.91,11298,5.38,72988.0,-16.67,-44.61,-44.67,0,*63
1484611286.17,11299,5.44,72992.3,-16.65,-44.67,-44.61,0,*60
1484611287.41,11300,5.44,72992.3,-16.65,-44.53,-44.61,0,*66
1484611288.67,11301,5.38,72988.3,-16.65,-44.67,-44.61,0,*60
1484611289.92,11302,5.44,72988.5,-16.65,-44.67,-44.53,0,*62
1484611291.16,11303,5.44,72990.0,-16.65,-44.53,-44.53,0,*64
1484611292.39,11304,5.38,72988.0,-16.65,-44.61,-44.61,0,*63
1484611293.62,11305,5.38,72990.0,-16.63,-44.67,-44.53,0,*63
1484611294.83,11306,5.38,72990.8,-16.63,-44.61,-44.53,0,*66
1484611296.07,11307,5.38,72986.8,-16.65,-44.61,-44.61,0,*60
1484611297.33,11308,5.38,72988.5,-16.65,-44.67,-44.61,0,*69
1484611298.61,11309,5.38,72986.8,-16.65,-44.67,-44.67,0,*6E
1484611299.87,11310,5.38,72990.3,-16.65,-44.67,-44.61,0,*60
1484611301.12,11311,5.38,72990.0,-16.65,-44.67,-44.61,0,*61
1484611302.38,11312,5.38,72990.3,-16.65,-44.67,-44.61,0,*62
1484611303.66,11313,5.38,72990.3,-16.65,-44.67,-44.67,0,*65
1484611304.91,11314,5.38,72988.8,-16.65,-44.79,-44.79,0,*62
1484611306.12,11315,5.38,72986.0,-16.63,-44.61,-44.79,0,*6C
1484611307.4,11316,5.38,72988.5,-16.65,-44.67,-44.67,0,*60
1484611308.63,11317,5.38,72988.0,-16.65,-44.61,-44.61,0,*61
1484611309.89,11318,5.38,72988.8,-16.65,-44.67,-44.79,0,*61
1484611311.15,11319,5.38,72990.5,-16.65,-44.61,-44.67,0,*69
1484611312.38,11320,5.38,72988.5,-16.65,-44.61,-44.61,0,*65
1484611313.64,11321,5.38,72990.0,-16.65,-44.67,-44.61,0,*62
1484611314.9,11322,5.38,72988.8,-16.65,-44.61,-44.67,0,*61
1484611316.16,11323,5.38,72990.5,-16.65,-44.67,-44.79,0,*69
1484611317.43,11324,5.38,72988.5,-16.65,-44.67,-44.67,0,*61
1484611318.69,11325,5.38,72988.0,-16.65,-44.67,-44.53,0,*67
1484611319.93,11326,5.38,72984.3,-16.65,-44.61,-44.61,0,*63
1484611321.19,11327,5.38,72990.8,-16.65,-44.67,-44.79,0,*6D
1484611322.43,11328,5.38,72986.3,-16.65,-44.79,-44.79,0,*6D
1484611323.69,11329,5.38,72990.0,-16.65,-44.67,-44.79,0,*63
1484611324.95,11330,5.38,72986.8,-16.65,-44.79,-44.67,0,*6B
1484611326.22,11331,5.38,72988.0,-16.67,-44.73,-44.73,0,*67
1484611327.47,11332,5.38,72988.0,-16.67,-44.67,-44.87,0,*6A
1484611328.72,11333,5.38,72988.5,-16.65,-44.61,-44.67,0,*61
1484611329.96,11334,5.38,72990.3,-16.67,-44.67,-44.61,0,*64
1484611331.22,11335,5.38,72988.3,-16.67,-44.67,-44.67,0,*63
1484611332.48,11336,5.38,72990.5,-16.67,-44.67,-44.73,0,*65
1484611333.72,11337,5.44,72992.3,-16.67,-44.61,-44.67,0,*67
1484611334.99,11338,5.44,72990.5,-16.67,-44.73,-44.73,0,*6E
1484611336.25,11339,5.38,72988.0,-16.65,-44.67,-44.79,0,*62
1484611337.49,11340,5.38,72988.8,-16.65,-44.79,-44.79,0,*63
1484611338.74,11341,5.38,72990.0,-16.65,-44.79,-44.79,0,*62
1484611340.0,11342,5.38,72988.5,-16.65,-44.87,-44.67,0,*6F
1484611341.25,11343,5.38,72990.0,-16.65,-44.79,-44.87,0,*61
1484611342.52,11344,5.38,72988.8,-16.67,-44.73,-44.93,0,*6B
1484611343.79,11345,5.38,72990.3,-16.67,-44.73,-44.73,0,*64
1484611345.02,11346,5.38,72988.0,-16.67,-44.61,-44.67,0,*61
1484611346.29,11347,5.38,72984.8,-16.67,-44.73,-44.67,0,*63
1484611347.56,11348,5.38,72988.5,-16.67,-44.73,-44.73,0,*69
1484611348.82,11349,5.38,72988.5,-16.67,-44.67,-44.73,0,*6D
1484611350.06,11350,5.38,72988.0,-16.67,-44.61,-44.67,0,*66
1484611351.32,11351,5.38,72986.0,-16.67,-44.73,-44.67,0,*64
1484611352.57,11352,5.38,72988.3,-16.67,-44.73,-44.87,0,*69
1484611353.81,11353,5.38,72986.8,-16.65,-44.79,-44.61,0,*68
1484611355.05,11354,5.38,72990.3,-16.65,-44.61,-44.79,0,*6F
1484611356.32,11355,5.44,72994.0,-16.67,-44.73,-44.73,0,*65
1484611357.54,11356,5.38,72992.5,-16.67,-44.87,-44.87,0,*66
1484611358.84,11357,5.38,72988.8,-16.69,-44.73,-44.73,0,*69
1484611360.09,11358,5.38,72990.3,-16.67,-44.87,-44.93,0,*6D
1484611361.36,11359,5.44,72992.5,-16.67,-44.73,-44.73,0,*69
1484611362.64,11360,5.44,72992.0,-16.67,-44.93,-44.93,0,*63
1484611363.9,11361,5.38,72990.5,-16.67,-44.67,-44.73,0,*67
1484611365.19,11362,5.38,72990.3,-16.69,-44.73,-44.73,0,*6F
1484611366.48,11363,5.38,72988.0,-16.69,-44.67,-44.73,0,*6B
1484611367.75,11364,5.38,72988.0,-16.67,-44.73,-44.73,0,*67
1484611369.0,11365,5.38,72990.8,-16.67,-44.73,-44.87,0,*6D
1484611370.27,11366,5.38,72990.3,-16.69,-44.61,-44.73,0,*68
1484611371.52,11367,5.38,72986.8,-16.67,-44.67,-44.67,0,*64
1484611372.81,11368,5.38,72984.5,-16.69,-44.67,-44.67,0,*65
1484611374.04,11369,5.38,72990.0,-16.67,-44.61,-44.67,0,*6C
1484611375.31,11370,5.38,72988.0,-16.67,-44.67,-44.73,0,*67
1484611376.58,11371,5.38,72988.8,-16.67,-44.73,-44.73,0,*63
1484611377.82,11372,5.38,72988.5,-16.67,-44.67,-44.87,0,*6E
1484611379.07,11373,5.38,72988.8,-16.65,-44.61,-44.67,0,*65
1484611380.34,11374,5.38,72990.0,-16.67,-44.73,-44.73,0,*66
1484611381.61,11375,5.38,72990.0,-16.67,-44.73,-44.73,0,*67
1484611382.86,11376,5.38,72990.8,-16.67,-44.73,-44.87,0,*6F
1484611384.11,11377,5.38,72990.8,-16.67,-44.87,-44.73,0,*6E
1484611385.38,11378,5.38,72990.0,-16.67,-44.73,-44.73,0,*6A
1484611386.65,11379,5.38,72990.3,-16.67,-44.73,-44.73,0,*6B
1484611387.93,11380,5.44,72994.3,-16.69,-44.87,-44.73,0,*68
1484611389.17,11381,5.38,72988.3,-16.67,-44.73,-44.87,0,*67
1484611390.44,11382,5.38,72988.5,-16.67,-44.73,-44.73,0,*6F
1484611391.72,11383,5.38,72986.8,-16.69,-44.87,-44.73,0,*6B
1484611392.95,11384,5.44,72992.5,-16.67,-44.87,-44.87,0,*69
1484611394.2,11385,5.38,72988.0,-16.67,-44.87,-44.93,0,*6D
1484611395.47,11386,5.44,72994.0,-16.69,-44.73,-44.87,0,*6E
1484611396.72,11387,5.38,72990.0,-16.69,-44.87,-44.87,0,*64
1484611397.97,11388,5.44,72992.0,-16.69,-44.87,-44.87,0,*6B
1484611399.26,11389,5.38,72988.5,-16.69,-44.73,-44.67,0,*6F
1484611400.52,11390,5.38,72988.5,-16.67,-44.73,-44.67,0,*69
1484611401.8,11391,5.38,72988.5,-16.69,-44.67,-44.67,0,*63
1484611403.07,11392,5.38,72988.5,-16.69,-44.73,-44.87,0,*6B
1484611404.33,11393,5.44,72992.8,-16.67,-44.73,-44.67,0,*6A
1484611405.6,11394,5.38,72988.0,-16.69,-44.67,-44.87,0,*68
1484611406.88,11395,5.38,72986.5,-16.69,-44.87,-44.93,0,*62
1484611408.17,11396,5.38,72988.8,-16.69,-44.73,-44.73,0,*64
1484611409.44,11397,5.38,72988.3,-16.69,-44.73,-44.87,0,*6E
1484611410.71,11398,5.38,72988.8,-16.67,-44.67,-44.73,0,*61
1484611411.98,11399,5.38,72990.5,-16.69,-44.73,-44.87,0,*60
1484611413.25,11400,5.38,72990.3,-16.69,-44.87,-44.73,0,*67
1484611414.52,11401,5.38,72988.0,-16.69,-44.73,-44.87,0,*66
1484611415.79,11402,5.38,72988.3,-16.69,-44.73,-44.87,0,*65
1484611417.06,11403,5.38,72988.8,-16.69,-44.73,-44.87,0,*64
1484611418.36,11404,5.38,72988.8,-16.69,-44.73,-44.93,0,*66
1484611419.63,11405,5.38,72990.3,-16.69,-44.87,-45.07,0,*60
1484611420.91,11406,5.38,72988.8,-16.69,-44.87,-44.93,0,*6F
1484611422.18,11407,5.38,72990.5,-16.69,-44.87,-44.93,0,*6E
1484611423.48,11408,5.38,72990.3,-16.69,-44.73,-44.73,0,*64
1484611424.75,11409,5.38,72990.3,-16.69,-44.87,-44.93,0,*60
1484611426.03,11410,5.44,72992.5,-16.67,-44.73,-44.93,0,*6D
1484611427.3,11411,5.38,72990.8,-16.69,-44.73,-44.87,0,*67
1484611428.57,11412,5.38,72988.0,-16.69,-44.73,-44.87,0,*64
1484611429.86,11413,5.38,72988.0,-16.69,-44.67,-44.73,0,*6B
1484611431.14,11414,5.38,72990.0,-16.69,-44.67,-44.73,0,*6C
1484611432.43,11415,5.38,72988.8,-16.69,-44.67,-44.73,0,*6D
1484611433.72,11416,5.38,72990.0,-16.69,-44.67,-44.73,0,*6E
1484611435.0,11417,5.38,72990.0,-16.69,-44.67,-44.67,0,*6A
1484611436.3,11418,5.44,72994.0,-16.69,-44.73,-44.73,0,*65
1484611437.57,11419,5.38,72990.3,-16.69,-44.87,-44.73,0,*6F
1484611438.82,11420,5.44,72992.3,-16.69,-44.87,-44.87,0,*6E
1484611440.11,11421,5.38,72990.0,-16.69,-44.73,-44.73,0,*6F
1484611441.41,11422,5.38,72990.5,-16.69,-44.73,-44.73,0,*6C
1484611442.7,11423,5.38,72988.5,-16.69,-44.73,-45.07,0,*6F
1484611443.99,11424,5.38,72990.0,-16.69,-44.67,-44.73,0,*6F
1484611445.26,11425,5.38,72990.5,-16.69,-44.73,-44.87,0,*60
1484611446.54,11426,5.38,72988.3,-16.73,-44.79,-44.93,0,*67
1484611447.81,11427,5.38,72990.5,-16.73,-44.79,-44.73,0,*68
1484611449.08,11428,5.38,72990.0,-16.73,-44.79,-44.93,0,*69
1484611450.36,11429,5.38,72990.8,-16.73,-44.79,-44.93,0,*68
1484611451.66,11430,5.38,72990.5,-16.73,-44.93,-44.93,0,*64
1484611452.94,11431,5.38,72990.3,-16.73,-44.79,-44.93,0,*61
1484611454.23,11432,5.38,72990.3,-16.73,-44.93,-44.93,0,*66
1484611455.51,11433,5.38,72990.0,-16.73,-44.79,-44.93,0,*63
1484611456.78,11434,5.44,72992.3,-16.73,-44.73,-44.79,0,*6A
1484611458.05,11435,5.38,72988.3,-16.73,-44.79,-44.93,0,*65
1484611459.3,11436,5.38,72990.5,-16.73,-44.79,-44.79,0,*62
1484611460.6,11437,5.38,72990.3,-16.73,-44.93,-44.93,0,*63
1484611461.84,11438,5.44,72994.0,-16.73,-44.79,-44.99,0,*62
1484611463.08,11439,5.38,72988.0,-16.73,-44.99,-44.99,0,*6D
1484611464.36,11440,5.38,72988.3,-16.73,-44.79,-44.93,0,*67
1484611465.63,11441,5.38,72986.3,-16.73,-44.93,-44.99,0,*68
1484611466.89,11442,5.44,72994.5,-16.73,-44.93,-44.99,0,*6B
1484611468.17,11443,5.38,72990.0,-16.75,-44.93,-44.93,0,*66
1484611469.47,11444,5.38,72992.5,-16.73,-44.93,-44.93,0,*67
1484611470.74,11445,5.38,72988.8,-16.75,-44.93,-44.93,0,*60
1484611471.99,11446,5.38,72990.3,-16.73,-44.79,-44.79,0,*65
1484611473.23,11447,5.38,72990.0,-16.73,-44.79,-44.79,0,*64
1484611474.48,11448,5.38,72990.5,-16.73,-44.79,-44.79,0,*6B
1484611475.73,11449,5.38,72990.3,-16.75,-44.79,-44.93,0,*68
1484611477.01,11450,5.38,72990.5,-16.73,-44.79,-44.73,0,*68
1484611478.25,11451,5.38,72990.3,-16.75,-44.67,-44.79,0,*6A
1484611479.54,11452,5.38,72988.8,-16.73,-44.73,-44.93,0,*6E
1484611480.79,11453,5.38,72990.3,-16.73,-44.79,-44.79,0,*61
1484611482.04,11454,5.38,72990.3,-16.75,-44.79,-44.93,0,*64
1484611483.34,11455,5.38,72990.8,-16.73,-44.73,-44.73,0,*67
1484611484.58,11456,5.38,72988.8,-16.73,-44.79,-44.79,0,*64
1484611485.86,11457,5.38,72990.5,-16.73,-44.79,-44.93,0,*61
1484611487.13,11458,5.38,72988.5,-16.73,-44.73,-44.79,0,*60
1484611488.37,11459,5.38,72990.5,-16.75,-44.73,-44.79,0,*67
1484611489.61,11460,5.38,72988.0,-16.73,-44.79,-44.79,0,*61
1484611490.86,11461,5.38,72992.3,-16.75,-44.73,-44.79,0,*6C
1484611492.14,11462,5.38,72988.5,-16.73,-44.79,-44.93,0,*67
1484611493.38,11463,5.38,72992.0,-16.75,-44.93,-44.79,0,*60
1484611494.68,11464,5.38,72990.5,-16.73,-44.93,-44.93,0,*65
1484611495.95,11465,5.38,72990.8,-16.75,-44.67,-44.93,0,*69
1484611497.2,11466,5.38,72990.8,-16.75,-44.79,-44.93,0,*65
1484611498.48,11467,5.38,72990.3,-16.73,-44.79,-44.93,0,*62
1484611499.74,11468,5.38,72992.5,-16.73,-44.93,-44.99,0,*63
1484611500.99,11469,5.38,72986.3,-16.73,-44.79,-44.99,0,*66
1484611502.21,11470,5.38,72992.8,-16.75,-44.79,-44.79,0,*66
1484611503.49,11471,5.38,72990.3,-16.73,-44.79,-44.93,0,*65
1484611504.74,11472,5.38,72992.0,-16.75,-44.79,-44.73,0,*6E
1484611505.98,11473,5.38,72990.8,-16.75,-44.73,-44.79,0,*6F
1484611507.23,11474,5.38,72988.0,-16.75,-44.93,-44.79,0,*66
1484611508.52,11475,5.38,72988.8,-16.73,-44.93,-44.93,0,*65
1484611509.79,11476,5.38,72990.8,-16.73,-44.93,-44.99,0,*6C
1484611511.07,11477,5.38,72990.8,-16.73,-44.79,-44.93,0,*63
1484611512.29,11478,5.38,72988.3,-16.75,-44.79,-44.79,0,*6E
1484611513.53,11479,5.38,72988.3,-16.75,-44.73,-44.79,0,*65
1484611514.79,11480,5.38,72990.5,-16.75,-44.79,-44.93,0,*6D
1484611516.08,11481,5.38,72990.8,-16.73,-44.93,-44.93,0,*6E
1484611517.36,11482,5.38,72990.0,-16.75,-44.93,-44.93,0,*6B
1484611518.6,11483,5.38,72990.8,-16.75,-44.93,-44.99,0,*60
1484611519.88,11484,5.44,72994.8,-16.75,-44.93,-44.93,0,*6D
1484611521.1,11485,5.38,72992.3,-16.75,-44.79,-44.99,0,*62
1484611522.34,11486,5.38,72986.5,-16.73,-44.79,-44.79,0,*69
1484611523.6,11487,5.38,72990.8,-16.75,-44.79,-44.93,0,*6A
1484611524.85,11488,5.38,72988.0,-16.77,-44.79,-44.99,0,*6D
1484611526.1,11489,5.38,72990.0,-16.75,-44.79,-44.93,0,*64
1484611527.35,11490,5.38,72988.8,-16.75,-44.79,-44.93,0,*6C
1484611528.6,11491,5.38,72988.0,-16.77,-44.79,-44.99,0,*65
1484611529.86,11492,5.38,72990.8,-16.77,-44.79,-44.87,0,*69
1484611531.11,11493,5.44,72992.5,-16.77,-44.87,-44.99,0,*66
1484611532.38,11494,5.38,72990.8,-16.75,-44.93,-44.93,0,*6C
1484611533.63,11495,5.38,72988.0,-16.73,-44.79,-44.79,0,*6B
1484611534.85,11496,5.38,72988.8,-16.75,-44.79,-44.99,0,*60
1484611536.12,11497,5.38,72988.3,-16.75,-44.93,-44.93,0,*6F
1484611537.4,11498,5.44,72994.8,-16.75,-44.93,-44.93,0,*60
1484611538.64,11499,5.44,72992.3,-16.75,-44.73,-44.79,0,*6B
1484611539.88,11500,5.38,72988.5,-16.75,-44.73,-44.79,0,*6A
1484611541.14,11501,5.38,72992.8,-16.77,-44.87,-44.87,0,*63
1484611542.38,11502,5.38,72990.8,-16.75,-44.73,-44.79,0,*68
1484611543.63,11503,5.38,72990.3,-16.75,-44.73,-44.79,0,*69
1484611544.9,11504,5.38,72990.8,-16.77,-44.73,-44.87,0,*6D
1484611546.17,11505,5.44,72992.3,-16.75,-44.73,-44.93,0,*6B
1484611547.4,11506,5.38,72994.3,-16.75,-44.79,-44.99,0,*68
1484611548.65,11507,5.38,72992.5,-16.75,-44.79,-44.93,0,*63
1484611549.87,11508,5.38,72992.3,-16.75,-44.79,-44.99,0,*66
1484611551.12,11509,5.38,72992.5,-16.75,-44.93,-44.99,0,*63
1484611552.38,11510,5.38,72992.0,-16.77,-44.99,-45.07,0,*65
1484611553.64,11511,5.38,72990.0,-16.77,-44.79,-44.87,0,*63
1484611554.87,11512,5.44,72994.0,-16.75,-44.67,-44.79,0,*6C
1484611556.12,11513,5.38,72992.3,-16.75,-44.93,-44.79,0,*66
1484611557.39,11514,5.44,72994.8,-16.75,-44.93,-44.93,0,*65
1484611558.65,11515,5.38,72992.8,-16.77,-44.79,-44.87,0,*67
1484611559.9,11516,5.38,72990.0,-16.77,-44.87,-44.87,0,*65
1484611561.12,11517,5.38,72994.0,-16.75,-44.79,-44.99,0,*68
1484611562.4,11518,5.38,72992.5,-16.75,-44.93,-44.93,0,*69
1484611563.65,11519,5.38,72992.3,-16.77,-44.99,-45.21,0,*68
1484611564.9,11520,5.38,72994.8,-16.77,-44.79,-44.99,0,*6E
1484611566.14,11521,5.38,72990.3,-16.77,-44.87,-44.99,0,*6E
1484611567.39,11522,5.38,72990.3,-16.77,-44.99,-44.99,0,*62
1484611568.64,11523,5.38,72990.5,-16.77,-44.87,-44.87,0,*63
1484611569.92,11524,5.38,72992.5,-16.77,-44.87,-45.07,0,*6D
1484611571.16,11525,5.38,72994.5,-16.77,-44.99,-44.99,0,*65
1484611572.38,11526,5.38,72992.0,-16.79,-44.87,-44.99,0,*67
1484611573.61,11527,5.38,72992.3,-16.79,-44.87,-44.99,0,*66
1484611574.83,11528,5.38,72992.8,-16.79,-44.99,-44.99,0,*66
1484611576.08,11529,5.38,72990.3,-16.77,-44.79,-44.87,0,*68
1484611577.33,11530,5.38,72990.8,-16.77,-44.87,-44.99,0,*6E
1484611578.58,11531,5.38,72994.5,-16.79,-44.87,-45.07,0,*67
1484611579.83,11532,5.38,72994.0,-16.77,-44.87,-44.99,0,*6C
1484611581.07,11533,5.38,72994.8,-16.77,-44.99,-44.99,0,*62
1484611582.34,11534,5.44,72994.0,-16.77,-44.99,-45.07,0,*63
1484611583.59,11535,5.38,72990.3,-16.77,-44.79,-44.87,0,*65
1484611584.87,11536,5.38,72992.3,-16.77,-44.73,-44.87,0,*6C
1484611586.12,11537,5.38,72990.8,-16.77,-44.87,-44.79,0,*67
1484611587.36,11538,5.38,72994.5,-16.79,-44.73,-44.79,0,*6D
1484611588.61,11539,5.38,72990.5,-16.77,-44.87,-44.87,0,*68
1484611589.87,11540,5.38,72992.0,-16.77,-44.79,-44.87,0,*67
1484611591.14,11541,5.38,72994.5,-16.77,-44.73,-44.79,0,*6D
1484611592.39,11542,5.38,72992.8,-16.77,-44.79,-44.87,0,*65
1484611593.64,11543,5.38,72994.5,-16.77,-44.79,-44.79,0,*65
1484611594.89,11544,5.38,72990.8,-16.77,-44.79,-44.87,0,*63
1484611596.12,11545,5.38,72994.3,-16.79,-44.79,-44.99,0,*63
1484611597.39,11546,5.38,72990.0,-16.77,-44.73,-44.87,0,*6B
1484611598.61,11547,5.38,72994.3,-16.79,-44.79,-44.79,0,*6F
1484611599.84,11548,5.38,72990.8,-16.79,-44.79,-44.87,0,*61
1484611601.09,11549,5.38,72992.3,-16.77,-44.79,-44.99,0,*61
1484611602.34,11550,5.38,72990.3,-16.79,-44.73,-44.87,0,*62
1484611603.63,11551,5.38,72990.8,-16.77,-44.73,-44.73,0,*66
1484611604.93,11552,5.38,72992.3,-16.77,-44.73,-44.73,0,*65
1484611606.16,11553,5.38,72992.8,-16.79,-44.87,-44.87,0,*6A
1484611607.41,11554,5.38,72988.0,-16.77,-44.79,-44.99,0,*6D
1484611608.63,11555,5.38,72992.8,-16.79,-44.79,-44.99,0,*62
1484611609.86,11556,5.38,72988.0,-16.79,-44.79,-45.21,0,*63
1484611611.13,11557,5.38,72994.0,-16.77,-44.87,-45.07,0,*69
1484611612.41,11558,5.38,72988.3,-16.77,-44.87,-45.07,0,*66
1484611613.63,11559,5.38,72992.3,-16.79,-44.79,-44.87,0,*61
1484611614.88,11560,5.38,72990.0,-16.79,-44.73,-44.87,0,*61
1484611616.13,11561,5.38,72988.5,-16.77,-44.79,-44.87,0,*64
1484611617.39,11562,5.38,72992.5,-16.77,-44.79,-44.87,0,*67
1484611618.61,11563,5.38,72992.3,-16.79,-44.79,-44.99,0,*67
1484611619.83,11564,5.38,72990.3,-16.79,-44.79,-44.99,0,*60
1484611621.08,11565,5.38,72990.8,-16.79,-44.73,-44.99,0,*6B
1484611622.3,11566,5.38,72990.3,-16.79,-44.79,-44.99,0,*62
1484611623.55,11567,5.38,72990.8,-16.79,-44.73,-44.87,0,*66
1484611624.8,11568,5.38,72990.8,-16.77,-44.79,-44.99,0,*62
1484611626.04,11569,5.38,72994.0,-16.79,-44.73,-44.87,0,*68
1484611627.29,11570,5.38,72994.5,-16.79,-44.73,-44.99,0,*6F
1484611628.53,11571,5.38,72990.8,-16.79,-44.73,-44.99,0,*6E
1484611629.76,11572,5.38,72990.3,-16.79,-44.87,-44.87,0,*69
1484611631.01,11573,5.38,72992.0,-16.77,-44.79,-44.87,0,*67
1484611632.23,11574,5.38,72992.0,-16.79,-44.79,-44.79,0,*6F
1484611633.45,11575,5.38,72994.3,-16.79,-44.99,-44.99,0,*6E
1484611634.67,11576,5.38,72992.8,-16.79,-44.99,-44.99,0,*6D
1484611635.91,11577,5.38,72990.3,-16.79,-44.99,-45.07,0,*6A
1484611637.15,11578,5.38,72994.5,-16.79,-44.99,-45.07,0,*65
1484611638.38,11579,5.38,72992.5,-16.79,-44.87,-45.21,0,*6F
1484611639.63,11580,5.38,72992.3,-16.79,-44.87,-45.07,0,*6D
1484611640.86,11581,5.38,72988.3,-16.79,-44.79,-44.87,0,*64
1484611642.13,11582,5.38,72994.0,-16.77,-44.73,-44.99,0,*6C
1484611643.35,11583,5.38,72992.5,-16.79,-44.79,-44.99,0,*69
1484611644.58,11584,5.38,72992.8,-16.79,-44.79,-44.99,0,*6E
1484611645.8,11585,5.38,72990.8,-16.79,-44.87,-44.87,0,*61
1484611647.03,11586,5.38,72992.3,-16.79,-44.87,-44.99,0,*6D
1484611648.25,11587,5.38,72994.5,-16.79,-44.87,-44.99,0,*6C
1484611649.48,11588,5.38,72994.0,-16.79,-44.87,-44.99,0,*63
1484611650.69,11589,5.38,72994.5,-16.79,-44.99,-44.99,0,*6D
1484611651.92,11590,5.38,72990.3,-16.79,-44.87,-45.21,0,*68
1484611653.19,11591,5.38,72994.5,-16.77,-44.99,-45.07,0,*6C
1484611654.46,11592,5.38,72992.8,-16.77,-44.87,-45.07,0,*60
1484611655.71,11593,5.38,72994.8,-16.79,-44.87,-45.07,0,*6F
1484611656.94,11594,5.38,72994.3,-16.79,-44.87,-45.21,0,*6C
1484611658.17,11595,5.38,72992.3,-16.79,-44.87,-44.99,0,*6F
1484611659.39,11596,5.38,72994.3,-16.79,-44.79,-44.99,0,*6D
1484611660.62,11597,5.38,72994.5,-16.79,-44.79,-44.87,0,*63
1484611661.87,11598,5.38,72992.3,-16.77,-44.79,-44.87,0,*62
1484611663.09,11599,5.38,72994.0,-16.79,-44.87,-44.99,0,*63
1484611664.32,11600,5.38,72992.0,-16.79,-44.79,-44.99,0,*61
1484611665.54,11601,5.38,72992.0,-16.79,-44.79,-44.87,0,*6F
1484611666.81,11602,5.38,72988.5,-16.79,-44.73,-45.07,0,*6F
1484611668.06,11603,5.38,72990.8,-16.79,-44.73,-44.87,0,*67
1484611669.31,11604,5.38,72992.8,-16.79,-44.73,-44.87,0,*60
1484611670.56,11605,5.38,72992.0,-16.77,-44.79,-44.87,0,*65
1484611671.81,11606,5.38,72992.0,-16.79,-44.73,-44.87,0,*62
1484611673.03,11607,5.38,72994.3,-16.79,-44.79,-44.87,0,*69
1484611674.28,11608,5.38,72990.8,-16.79,-44.73,-44.87,0,*6C
1484611675.51,11609,5.38,72992.8,-16.79,-44.79,-44.87,0,*67
1484611676.81,11610,5.38,72992.8,-16.81,-44.93,-45.07,0,*65
1484611678.05,11611,5.38,72994.0,-16.79,-44.73,-44.99,0,*6B
1484611679.27,11612,5.38,72994.5,-16.79,-44.79,-44.99,0,*62
1484611680.52,11613,5.38,72988.5,-16.79,-44.73,-44.99,0,*69
1484611681.74,11614,5.38,72992.5,-16.79,-44.79,-44.99,0,*64
1484611682.97,11615,5.38,72992.0,-16.79,-44.79,-44.87,0,*6A
1484611684.19,11616,5.38,72992.5,-16.79,-44.79,-44.87,0,*69
1484611685.42,11617,5.38,72992.8,-16.79,-44.87,-44.99,0,*66
1484611686.64,11618,5.38,72992.3,-16.79,-44.79,-44.99,0,*68
1484611687.91,11619,5.38,72992.3,-16.79,-44.73,-44.73,0,*67
1484611689.16,11620,5.38,72994.8,-16.79,-44.73,-44.79,0,*67
1484611690.41,11621,5.38,72992.3,-16.77,-44.79,-44.87,0,*63
1484611691.63,11622,5.38,72992.5,-16.79,-44.79,-44.87,0,*6E
1484611692.86,11623,5.38,72990.0,-16.79,-44.99,-44.87,0,*61
1484611694.11,11624,5.38,72992.5,-16.79,-44.87,-45.07,0,*60
1484611695.35,11625,5.38,72990.8,-16.79,-44.73,-44.99,0,*6C
1484611696.57,11626,5.38,72992.0,-16.79,-44.79,-44.99,0,*65
1484611697.8,11627,5.38,72992.5,-16.79,-44.87,-44.99,0,*65
1484611699.06,11628,5.38,72992.5,-16.81,-44.93,-45.13,0,*6B
1484611700.34,11629,5.38,72994.5,-16.81,-44.87,-45.07,0,*6A